Voltar ao catálogo

STARLINK-1724

AtivoComunicaçõesVLEO
NORAD 46375·PAYLOAD·🇺🇸 United States

Lançado Sep 3, 2020 de Cape Canaveral Space Force Station

Loading…

Próximas Passagens (próximas 24 horas)

TLE

AtualizadoSource: CelesTrak SupGP

Época: Sep 15, 2026, 00:43 UTC

1 46375C 20062BD  26258.03034722  .01081700  00000+0  10074-2 0  2587
2 46375  53.0063  65.4950 0010503 292.1126  90.1324 16.10782342    19

Acompanhe STARLINK-1724 em tempo real com AllMySat

Download on the App Store